Pontianak / Supadio, Indonesia

4:17 PM WIB on February 21, 2017 (GMT +0700)
Supadio

Weather History for WIOO - December, 2013

Change the Weather History Date:

Tuesday, December 10, 2013

  Actual Average Record
Temperature  
Mean Temperature 83 °F -  
Max Temperature 89 °F - - ()
Min Temperature 77 °F - - ()
Cooling Degree Days 18    
Growing Degree Days 33 (Base 50)    
Moisture  
Dew Point 77 °F    
Average Humidity 85    
Maximum Humidity 100    
Minimum Humidity 66    
Precipitation  
Precipitation 0.00 in - - ()
Sea Level Pressure  
Sea Level Pressure 29.72 in    
Wind  
Wind Speed 3 mph ()    
Max Wind Speed 17 mph    
Max Gust Speed -    
Visibility 5.3 miles    
Events Thunderstorm    
T = Trace of Precipitation, MM = Missing Value Source: Averaged Metar Reports

Daily Weather History Graph

Daily Weather History Graph

Search for Another Location

Airport or City:

Trip Planner

Search our weather history database for the weather conditions in past years. The results will help you decide how hot, cold, wet, or windy it might be!

Date:

Astronomy

Dec. 10, 2013 Rise Set
Actual Time 5:31 AM WIB 5:39 PM WIB
Civil Twilight 5:08 AM WIB 6:01 PM WIB
Nautical Twilight 4:42 AM WIB 6:27 PM WIB
Astronomical Twilight 4:16 AM WIB 6:53 PM WIB
Moon 12:05 PM WIB (12/10) No Moon Set
Length of Visible Light 12h 52m
Length of Day
12h 07m
First Quarter, 56% of the Moon is Illuminated
Dec 10
First Quarter
Dec 17
Full
Dec 25
Last Quarter
Jan 1
New
Jan 8
First Quarter

Hourly Weather History & Observations

Time (WIB) Temp. Heat Index Dew Point Humidity Pressure Visibility Wind Dir Wind Speed Gust Speed Precip Events Conditions
1:00 AM 78 °F - 76 °F 91% 29.75 in 4 mi Calm Calm - -   Partly Cloudy
4:00 AM 77 °F - 76 °F 94% 29.74 in 4 mi Calm Calm - -   Partly Cloudy
5:00 AM 75.2 °F - 75.2 °F 100% 29.74 in 3.7 mi Calm Calm - N/A   Scattered Clouds
5:30 AM 77.0 °F - 75.2 °F 94% 29.74 in 3.7 mi Calm Calm - N/A   Scattered Clouds
6:00 AM 77.0 °F - 75.2 °F 94% 29.74 in 5.0 mi Calm Calm - N/A   Scattered Clouds
6:30 AM 77.0 °F - 75.2 °F 94% 29.74 in 5.0 mi Calm Calm - N/A   Scattered Clouds
7:00 AM 79 °F - 77 °F 93% 29.76 in 6 mi ENE 4.6 mph - -   Scattered Clouds
7:30 AM 80.6 °F 87.1 °F 77.0 °F 89% 29.77 in 6.2 mi Calm Calm - N/A   Scattered Clouds
8:00 AM 82.4 °F 90.9 °F 77.0 °F 84% 29.77 in 6.2 mi ENE 4.6 mph - N/A   Mostly Cloudy
8:30 AM 84.2 °F 94.1 °F 77.0 °F 79% 29.77 in 6.2 mi Calm Calm - N/A   Mostly Cloudy
9:00 AM 84.2 °F 94.1 °F 77.0 °F 79% 29.77 in 6.2 mi Calm Calm - N/A   Mostly Cloudy
9:30 AM 86.0 °F 96.9 °F 77.0 °F 74% 29.77 in 6.2 mi Calm Calm - N/A   Mostly Cloudy
10:00 AM 87.8 °F 99.7 °F 77.0 °F 70% 29.74 in 6.2 mi SSW 3.5 mph - N/A   Mostly Cloudy
10:30 AM 89.6 °F 102.2 °F 77.0 °F 66% 29.74 in 6.2 mi WSW 4.6 mph - N/A   Partly Cloudy
11:00 AM 87.8 °F 99.7 °F 77.0 °F 70% 29.74 in 6.2 mi Calm Calm - N/A   Partly Cloudy
11:30 AM 89.6 °F 102.2 °F 77.0 °F 66% 29.71 in 6.2 mi North 3.5 mph - N/A   Partly Cloudy
12:00 PM 87.8 °F 97.6 °F 75.2 °F 66% 29.71 in 6.2 mi North 12.7 mph - N/A   Partly Cloudy
12:30 PM 84.2 °F 92.3 °F 75.2 °F 74% 29.71 in 4.3 mi NNW 17.3 mph - N/A Thunderstorm Thunderstorm
1:00 PM 78.8 °F - 75.2 °F 89% 29.71 in 5.0 mi WNW 11.5 mph - N/A Thunderstorm Thunderstorm
2:00 PM 80.6 °F 87.1 °F 77.0 °F 89% 29.68 in 6.2 mi WNW 9.2 mph - N/A   Partly Cloudy
2:30 PM 84.2 °F 94.1 °F 77.0 °F 79% 29.65 in 6.2 mi WNW 12.7 mph - N/A   Scattered Clouds
3:00 PM 84.2 °F 94.1 °F 77.0 °F 79% 29.65 in 6.2 mi NW 10.4 mph - N/A   Scattered Clouds
3:30 PM 84.2 °F 94.1 °F 77.0 °F 79% 29.62 in 6.2 mi NNW 8.1 mph - N/A   Scattered Clouds
4:00 PM 83 °F - 76 °F 75% 29.66 in 6 mi NNW 8.1 mph - -   Partly Cloudy
4:00 PM 84.2 °F 94.1 °F 77.0 °F 79% 29.65 in 6.2 mi NNW 8.1 mph - N/A   Scattered Clouds
5:30 PM 80.6 °F 88.1 °F 78.8 °F 94% 29.65 in 5.0 mi North 5.8 mph - N/A   Scattered Clouds
6:30 PM 78.8 °F - 77.0 °F 94% 29.68 in 4.3 mi WNW 4.6 mph - N/A   Scattered Clouds
7:00 PM 78 °F - 77 °F 95% 29.70 in 4 mi Calm Calm - -   Partly Cloudy
7:00 PM 78.8 °F - 77.0 °F 94% 29.68 in 4.3 mi Calm Calm - N/A   Scattered Clouds
7:30 PM 78.8 °F - 77.0 °F 94% 29.71 in 4.3 mi NW 3.5 mph - N/A   Scattered Clouds
9:30 PM 78.8 °F - 77.0 °F 94% 29.74 in 4.3 mi Calm Calm - N/A   Partly Cloudy
10:00 PM 77 °F - 76 °F 97% 29.77 in 4 mi NNW 3.5 mph - -   Partly Cloudy
10:00 PM 77.0 °F - 77.0 °F 100% 29.74 in 4.3 mi NNW 3.5 mph - N/A   Partly Cloudy